Home > Weather > Fresno > Past weeks

Flag for USA Weather for the Past 2 Weeks in Fresno, California, USA

Now
56 °F

Passing clouds.


Feels Like: 54 °F
Forecast: 53 / 77 °F
Wind: 9 mph from Northwest

Location: Fresno Air Terminal

Current Time: Apr 30, 2016 at 8:32:12 AM

Latest Report: Apr 30, 2016 at 7:53 AM


Visibility: 10 mi

Pressure: 29.84 "Hg

Humidity: 70%

Dew Point: 46 °F

Location of FresnoLocation

Historic Weather in Fresno — Graph

°F

Fresno Temperature Yesterday

Maximum temperature yesterday: 80 °F (at 2:53 PM)
Minimum temperature yesterday: 54 °F (at 1:53 AM)
Average temperature yesterday: 66 °F

High & Low Weather Summary for the Past Weeks

 TemperatureHumidityPressure
High90 °F (Apr 18, 4:53 PM)90% (Apr 22, 4:53 PM)30.18 "Hg (Apr 22, 4:53 PM)
Low46 °F (Apr 15, 6:53 AM)13% (Apr 17, 5:53 PM)29.76 "Hg (Apr 30, 4:53 AM)
Average65 °F49%29.96 "Hg
* Reported Apr 15 6:53 AM — Apr 30 6:53 AM, Fresno, Weather by CustomWeather, © 2016

Note: Actual official high and low records may vary slightly from our data, if they occured in-between our weather recording intervals... More about our weather records

Advertising

Fresno Weather History for the Previous 24 Hours

Scroll right to see more
 ConditionsComfort  
Time TempWeatherWind HumidityBarometerVisibility
6:53 AM
Sat, Apr 30
54 °FPassing clouds.6 mph74%29.82 "Hg10 mi
5:53 AM54 °FPassing clouds.6 mph74%29.80 "Hg10 mi
4:53 AM56 °FPassing clouds.18 mph67%29.76 "Hg10 mi
3:53 AM56 °FPassing clouds.14 mph65%29.80 "Hg10 mi
2:53 AM55 °FOvercast.9 mph67%29.79 "Hg10 mi
1:53 AM56 °FLight rain. Passing clouds.15 mph65%29.80 "Hg10 mi
12:53 AM57 °FPartly cloudy.14 mph60%29.82 "Hg10 mi
11:53 PM
Fri, Apr 29
58 °FPassing clouds.12 mph56%29.82 "Hg10 mi
10:53 PM61 °FClear.13 mph52%29.83 "Hg10 mi
9:53 PM63 °FClear.16 mph52%29.84 "Hg10 mi
8:53 PM66 °FPassing clouds.13 mph47%29.84 "Hg10 mi
7:53 PM73 °FScattered clouds.7 mph36%29.83 "Hg10 mi
6:53 PM76 °FScattered clouds.15 mph29%29.83 "Hg10 mi
5:53 PM78 °FScattered clouds.13 mph23%29.84 "Hg10 mi
4:53 PM80 °FScattered clouds.13 mph23%29.86 "Hg10 mi
3:53 PM79 °FScattered clouds.13 mph28%29.89 "Hg10 mi
2:53 PM80 °FScattered clouds.6 mph29%29.91 "Hg10 mi
1:53 PM78 °FScattered clouds.7 mph31%29.94 "Hg10 mi
12:53 PM75 °FScattered clouds.3 mph34%29.96 "Hg10 mi
11:53 AM72 °FPartly sunny.7 mph40%29.98 "Hg10 mi
10:53 AM70 °FPartly sunny.5 mph42%29.99 "Hg9 mi
9:53 AM68 °FPartly sunny.6 mph44%30.00 "Hg10 mi
8:53 AM64 °FPartly sunny.3 mph52%30.01 "Hg7 mi
Weather by CustomWeather, © 2016

See weather overviewHow to use our weather pages